THORAD AGENA D DEB, 6766

Orbit data source: Space-Track

THORAD AGENA D DEB, 6766 is space debris in SSO originally from a launch on Wed, 08 Apr 1970 UTC launched from the Air Force Western Test Range (AFWTR). Debris objects in space refer to the collection of defunct objects orbiting the Earth. Examples of debris include non-operational satellites, rocket bodies, and fragments generated from explosions, collisions, or faulty payload assembly.

Loading next visibility...
Identifier
6766, 1970-025NH
Orbit
SSO
Country
Flag of USUS
Related business
Manufacturer
Unknown
Mission
Spacecraft
Bus & Motor
Unknown
Mass
Unknown
Launch date (UTC)
1970-04-08 (56 years ago)
Launch vehicle
Unknown
Launch site
Air Force Western Test Range (AFWTR)
Object type
Payload
Rocket body
Debris
Shape & HBR
Unknown shape, 0.1 m
Radar Cross Section
Small (<0.1 m²)

Expand to show TLE details & history
Last TLE update: 2 days ago

TLE from 2 days ago
0 THORAD AGENA D DEB
1 06766U 70025NH  25307.47109222  .00002254  00000-0  13117-2 0  9991
2 06766 100.1832 320.0447 0076842 339.4825  20.3259 14.08409936803717
Epoch: 2025-11-03T11:18Z
TLE epoch observation values (Epoch: 2025-11-03T11:18:22.367Z)
Latitude
-0.00002°
Longitude
107.47951°
Altitude
815.518 km
Speed
7.472 km/s
True Right ascension
21h 20m 10s
True Declination
0° 00' 00"
Sunlit
Object was in daylight at epoch
Visualization orbit readout
Latitude
Unknown
Longitude
Unknown
Altitude
Unknown
Speed
Unknown
Apparent Right ascension
Unknown
Apparent Declination
Unknown
Sunlit
N/A
Visualization observer readout
Local Sidereal Time
04:11:06
Azimuth
Unknown
Elevation
Unknown
Doppler factor
Unknown
Orbital elements
Apogee altitude
917.703 km
Perigee altitude
806.433 km
Semi-major axis
7,240.205 km
Eccentricity
0.00768
Inclination
100.1832°
RAAN
320.0447°
Arg. of periapsis
339.4825°
True anomaly
20.63454°
Mean anomaly
20.3259°
Eccentric anomaly
20.47994°
Mean motion
3.52303 °/min
Orbital period
102.18 mins
BSTAR
0.0013117
Loading maneuver chart data...
Computing Atmospheric mass density...

Documentation

Showing up to 5 results
|